Zurück zum Katalog

STARLINK-5901

AktivKommunikationVLEO
NORAD 55999·PAYLOAD·🇺🇸 United States

Gestartet Mar 24, 2023 von Cape Canaveral Space Force Station

Loading…

Nächste Überflüge (nächste 24 Stunden)

TLE

AktuellSource: CelesTrak SupGP

Epoche: Sep 14, 2026, 20:48 UTC

1 55999C 23042P   26257.86715278  .00021375  00000+0  77441-3 0  2574
2 55999  43.0016  71.3885 0001823 266.3501 316.7549 15.27558587    11

Verfolge STARLINK-5901 in Echtzeit mit AllMySat

Download on the App Store